Terminal Aerodrome Forecast
Issued by NWS Twin Cities, MN

Home | Current Version | Previous Version | Graphics & Text | Print | Product List | Glossary On
Versions: 1 2 3 4 5 6 7 8 9 10 11 12 13 14 15 16 17 18 19 20 21 22
000
FTUS43 KMPX 181000 CCB
TAFSTC
TAF COR
KSTC 181015Z 1810/1906 VRB03KT P6SM SCT020
      TEMPO 1810/1812 BKN020
     FM181800 15004KT P6SM SCT025 BKN090=

USA.gov is the U.S. government's official web portal to all federal, state and local government web resources and services.